Location: Dannhausen
(51.8650°N, 10.1026°E)
Time: 10:59:24
(UTC+00:00)

Cosmos 2228 - Pass Details

Date: 09 April 2020
Orbit: 589 x 619 km, 82.5° (Epoch: 23 May)

Event Time Altitude Azimuth Distance (km) Brightness Sun altitude
Rises 19:07:43 0° 195° (SSW) 2,842 6.3 -9.5°
Reaches altitude 10° 19:09:55 10° 197° (SSW) 1,949 5.5 -9.8°
Maximum altitude 19:14:13 71° 282° (WNW) 650 3.4 -10.4°
Drops below altitude 10° 19:18:36 10° 7° (N) 1,983 5.9 -11.0°
Sets 19:20:52 0° 10° (N) 2,897 6.8 -11.3°
